Charles City, IA

1:09 PM CDT on June 25, 2017 (GMT -0500)
Charles City Municipal

Weather History for KCCY - January, 2013

Change the Weather History Date:

Thursday, January 24, 2013

  Actual Average Record
Temperature  
Mean Temperature 8 °F -  
Max Temperature 17 °F 27 °F 57 °F (1981)
Min Temperature -2 °F 8 °F -18 °F (1982)
Degree Days  
Heating Degree Days 58    
Moisture  
Dew Point -10 °F    
Average Humidity 47    
Maximum Humidity 56    
Minimum Humidity 35    
Precipitation  
Precipitation 0.00 in - - ()
Sea Level Pressure  
Sea Level Pressure 30.45 in    
Wind  
Wind Speed 12 mph (ESE)    
Max Wind Speed 20 mph    
Max Gust Speed 25 mph    
Visibility 10 miles    
Events      
Averages and records for this station are not official NWS values.
T = Trace of Precipitation, MM = Missing Value Source: NWS Daily Summary

Daily Weather History Graph

Daily Weather History Graph

Search for Another Location

Airport or City:

Trip Planner

Search our weather history database for the weather conditions in past years. The results will help you decide how hot, cold, wet, or windy it might be!

Date:

Astronomy

Jan. 24, 2013 Rise Set
Actual Time 7:32 AM CST 5:12 PM CST
Civil Twilight 7:02 AM CST 5:43 PM CST
Nautical Twilight 6:27 AM CST 6:18 PM CST
Astronomical Twilight 5:54 AM CST 6:51 PM CST
Moon 3:14 PM CST (1/24) 5:31 AM CST (1/24)
Length of Visible Light 10h 41m
Length of Day
9h 39m
Waxing Gibbous, 94% of the Moon is Illuminated
Jan 24
Waxing Gibbous
Jan 26
Full
Feb 3
Last Quarter
Feb 10
New
Feb 17
First Quarter

Hourly Weather History & Observations

Time (CST) Temp. Windchill Dew Point Humidity Pressure Visibility Wind Dir Wind Speed Gust Speed Precip Events Conditions
12:15 AM -0.4 °F -19.9 °F -14.8 °F 51% 30.52 in 10.0 mi North 15.0 mph 20.7 mph N/A   Clear
12:35 AM -0.4 °F -19.2 °F -14.8 °F 51% 30.52 in 10.0 mi North 13.8 mph - N/A   Clear
12:55 AM -0.4 °F -16.7 °F -14.8 °F 51% 30.52 in 10.0 mi North 10.4 mph 17.3 mph N/A   Clear
1:15 AM -0.4 °F -16.7 °F -14.8 °F 51% 30.54 in 10.0 mi NNE 10.4 mph 18.4 mph N/A   Clear
1:35 AM -0.4 °F -18.4 °F -14.8 °F 51% 30.54 in 10.0 mi North 12.7 mph - N/A   Clear
1:55 AM -0.4 °F -17.6 °F -14.8 °F 51% 30.54 in 10.0 mi NNE 11.5 mph - N/A   Clear
2:15 AM -2.2 °F -18.0 °F -14.8 °F 55% 30.56 in 10.0 mi NNE 9.2 mph 16.1 mph N/A   Clear
2:35 AM -2.2 °F -19.9 °F -14.8 °F 55% 30.57 in 10.0 mi North 11.5 mph - N/A   Clear
2:55 AM -2.2 °F -19.9 °F -14.8 °F 55% 30.56 in 10.0 mi NNE 11.5 mph - N/A   Clear
3:15 AM -2.2 °F -20.7 °F -14.8 °F 55% 30.56 in 10.0 mi North 12.7 mph - N/A   Clear
3:35 AM -2.2 °F -19.9 °F -14.8 °F 55% 30.58 in 10.0 mi NNE 11.5 mph - N/A   Clear
3:55 AM -2.2 °F -20.7 °F -14.8 °F 55% 30.57 in 10.0 mi NNE 12.7 mph - N/A   Clear
4:15 AM -2.2 °F -19.9 °F -14.8 °F 55% 30.57 in 10.0 mi NNE 11.5 mph - N/A   Clear
4:55 AM -2.2 °F -18.9 °F -14.8 °F 55% 30.57 in 10.0 mi NE 10.4 mph - N/A   Clear
5:15 AM -2.2 °F -18.0 °F -14.8 °F 55% 30.57 in 10.0 mi NE 9.2 mph - N/A   Clear
5:35 AM -2.2 °F -15.6 °F -14.8 °F 55% 30.57 in - NE 6.9 mph - N/A   Clear
5:55 AM -2.2 °F -16.8 °F -14.8 °F 55% 30.57 in 10.0 mi NE 8.1 mph - N/A   Clear
6:15 AM -2.2 °F -15.6 °F -14.8 °F 55% 30.59 in 10.0 mi NE 6.9 mph - N/A   Clear
6:35 AM -2.2 °F -15.6 °F -14.8 °F 55% 30.58 in 10.0 mi NE 6.9 mph - N/A   Clear
6:55 AM -0.4 °F -12.0 °F -14.8 °F 51% 30.61 in 10.0 mi Variable 5.8 mph - N/A   Partly Cloudy
7:15 AM -0.4 °F -13.4 °F -13.0 °F 55% 30.61 in 10.0 mi NE 6.9 mph - N/A   Partly Cloudy
7:35 AM -0.4 °F -15.7 °F -13.0 °F 55% 30.61 in 10.0 mi ENE 9.2 mph - N/A   Partly Cloudy
7:55 AM -0.4 °F -13.4 °F -13.0 °F 55% 30.62 in 10.0 mi NE 6.9 mph - N/A   Partly Cloudy
8:15 AM -0.4 °F -16.7 °F -13.0 °F 55% 30.61 in 10.0 mi East 10.4 mph - N/A   Clear
8:35 AM -0.4 °F -15.7 °F -13.0 °F 55% 30.60 in 10.0 mi East 9.2 mph - N/A   Clear
8:55 AM 1.4 °F -15.3 °F -13.0 °F 51% 30.59 in 10.0 mi East 11.5 mph - N/A   Clear
9:15 AM 1.4 °F -16.1 °F -11.2 °F 56% 30.57 in 10.0 mi East 12.7 mph - N/A   Clear
9:35 AM 3.2 °F -10.3 °F -11.2 °F 51% 30.58 in 10.0 mi ESE 8.1 mph - N/A   Clear
9:55 AM 3.2 °F -7.8 °F -11.2 °F 51% 30.59 in 10.0 mi ESE 5.8 mph - N/A   Clear
10:15 AM 3.2 °F -10.3 °F -9.4 °F 56% 30.57 in 10.0 mi SE 8.1 mph - N/A   Clear
10:35 AM 5.0 °F -6.9 °F -9.4 °F 52% 30.58 in 10.0 mi SE 6.9 mph - N/A   Clear
10:55 AM 6.8 °F -5.9 °F -9.4 °F 48% 30.57 in 10.0 mi ESE 8.1 mph 13.8 mph N/A   Clear
11:15 AM 6.8 °F -7.8 °F -9.4 °F 48% 30.56 in 10.0 mi SE 10.4 mph - N/A   Clear
11:35 AM 8.6 °F -4.7 °F -9.4 °F 44% 30.56 in - SE 9.2 mph 17.3 mph N/A   Clear
11:55 AM 8.6 °F -5.5 °F -9.4 °F 44% 30.55 in 10.0 mi SE 10.4 mph - N/A   Clear
12:15 PM 10.4 °F -4.1 °F -9.4 °F 41% 30.53 in 10.0 mi SSE 11.5 mph - N/A   Clear
12:35 PM 10.4 °F -0.4 °F -9.4 °F 41% 30.53 in 10.0 mi SSE 6.9 mph 15.0 mph N/A   Clear
12:55 PM 10.4 °F -4.1 °F -9.4 °F 41% 30.50 in 10.0 mi SSE 11.5 mph - N/A   Clear
1:15 PM 10.4 °F -5.4 °F -9.4 °F 41% 30.49 in 10.0 mi SE 13.8 mph - N/A   Clear
1:35 PM 12.2 °F -3.1 °F -9.4 °F 38% 30.47 in 10.0 mi SSE 13.8 mph - N/A   Clear
1:55 PM 12.2 °F -2.5 °F -9.4 °F 38% 30.44 in 10.0 mi SE 12.7 mph - N/A   Clear
2:15 PM 12.2 °F -3.1 °F -9.4 °F 38% 30.43 in 10.0 mi SE 13.8 mph - N/A   Clear
2:35 PM 14.0 °F -0.8 °F -9.4 °F 35% 30.43 in 10.0 mi SE 13.8 mph - N/A   Clear
2:55 PM 12.2 °F -1.0 °F -9.4 °F 38% 30.43 in 10.0 mi SE 10.4 mph 18.4 mph N/A   Clear
3:15 PM 14.0 °F 0.5 °F -9.4 °F 35% 30.42 in 10.0 mi SE 11.5 mph - N/A   Clear
3:35 PM 14.0 °F -0.2 °F -9.4 °F 35% 30.40 in 10.0 mi ESE 12.7 mph - N/A   Clear
3:55 PM 14.0 °F 0.5 °F -9.4 °F 35% 30.39 in 10.0 mi SE 11.5 mph - N/A   Clear
4:15 PM 14.0 °F -0.8 °F -9.4 °F 35% 30.38 in 10.0 mi SE 13.8 mph - N/A   Clear
4:35 PM 14.0 °F -0.2 °F -9.4 °F 35% 30.37 in 10.0 mi SE 12.7 mph - N/A   Clear
4:55 PM 14.0 °F -0.8 °F -7.6 °F 38% 30.35 in 10.0 mi SE 13.8 mph - N/A   Mostly Cloudy
5:15 PM 14.0 °F -0.8 °F -7.6 °F 38% 30.34 in 10.0 mi SE 13.8 mph - N/A   Overcast
5:35 PM 14.0 °F - -7.6 °F 38% 30.33 in 10.0 mi North - - N/A   Overcast
5:55 PM 14.0 °F -2.0 °F -7.6 °F 38% 30.32 in 10.0 mi SE 16.1 mph - N/A   Overcast
6:15 PM 14.0 °F -2.0 °F -7.6 °F 38% 30.31 in 10.0 mi SE 16.1 mph 21.9 mph N/A   Overcast
6:35 PM 14.0 °F -0.2 °F -7.6 °F 38% 30.31 in 10.0 mi SE 12.7 mph 20.7 mph N/A   Overcast
6:55 PM 14.0 °F -0.2 °F -7.6 °F 38% 30.31 in 10.0 mi SE 12.7 mph 19.6 mph N/A   Overcast
7:15 PM 14.0 °F -2.0 °F -5.8 °F 41% 30.31 in 10.0 mi SE 16.1 mph - N/A   Overcast
7:35 PM 14.0 °F -1.4 °F -5.8 °F 41% 30.31 in 10.0 mi SSE 15.0 mph - N/A   Overcast
7:55 PM 15.8 °F 2.7 °F -4.0 °F 41% 30.29 in 10.0 mi SSE 11.5 mph 21.9 mph N/A   Overcast
8:15 PM 15.8 °F 1.4 °F -4.0 °F 41% 30.28 in 10.0 mi SSE 13.8 mph 20.7 mph N/A   Overcast
8:35 PM 15.8 °F -0.2 °F -4.0 °F 41% 30.25 in 10.0 mi SSE 17.3 mph 23.0 mph N/A   Overcast
8:55 PM 15.8 °F -0.6 °F -4.0 °F 41% 30.24 in 10.0 mi SSE 18.4 mph 25.3 mph N/A   Overcast
9:15 PM 15.8 °F -0.2 °F -2.2 °F 45% 30.23 in 10.0 mi SSE 17.3 mph - N/A   Overcast
9:35 PM 15.8 °F 0.9 °F -2.2 °F 45% 30.23 in 10.0 mi SSE 15.0 mph 24.2 mph N/A   Overcast
9:55 PM 15.8 °F 1.4 °F -2.2 °F 45% 30.25 in 10.0 mi SSE 13.8 mph 20.7 mph N/A   Overcast
10:15 PM 15.8 °F 0.3 °F -2.2 °F 45% 30.24 in 10.0 mi SSE 16.1 mph - N/A   Overcast
10:35 PM 15.8 °F 0.9 °F -0.4 °F 49% 30.22 in 10.0 mi SSE 15.0 mph 21.9 mph N/A   Overcast
10:55 PM 15.8 °F -1.1 °F -0.4 °F 49% 30.19 in 10.0 mi SSE 19.6 mph - N/A   Overcast
11:15 PM 15.8 °F 1.4 °F 1.4 °F 53% 30.20 in 10.0 mi SSE 13.8 mph 20.7 mph N/A   Overcast
11:35 PM 17.6 °F 3.7 °F 1.4 °F 49% 30.20 in 10.0 mi SSE 13.8 mph - N/A   Overcast
11:55 PM 17.6 °F 3.7 °F 1.4 °F 49% 30.19 in - SSE 13.8 mph 19.6 mph N/A   Overcast